Weather History for Charlotte, MI

Change the Weather History Date:

Friday, November 9, 2012

  Actual Average (KLAN) Record (KLAN)
Temperature  
Mean Temperature 42 °F 42 °F  
Max Temperature 59 °F 50 °F 73 °F (1999)
Min Temperature 28 °F 35 °F 12 °F (1991)
Degree Days  
Heating Degree Days 22 23  
Month to date heating degree days 192  
Since 1 July heating degree days 842  
Cooling Degree Days 0 0  
Month to date cooling degree days 0  
Year to date cooling degree days 625  
Moisture  
Dew Point 37 °F    
Average Humidity 76    
Maximum Humidity 99    
Minimum Humidity 48    
Precipitation  
Precipitation 0.00 in 0.09 in 2.52 in (1864)
Month to date precipitation 0.84  
Year to date precipitation 27.96  
Snow  
Snow 0.00 in 0.00 in 6.80 in (1921)
Month to date snowfall 0.4  
Since 1 July snowfall 0.8  
Since 1 September snowfall 0.8  
Snow Depth -    
Sea Level Pressure  
Sea Level Pressure 30.10 in    
Wind  
Wind Speed 2 mph (SSE)    
Max Wind Speed 10 mph    
Max Gust Speed 16 mph    
Visibility 6 miles    
Events Rain    
T = Trace of Precipitation, MM = Missing Value Source: NWS Daily Summary

Daily Weather History Graph

Daily Weather History Graph

Search for Another Location

Airport:

Trip Planner

Search our weather history database for the weather conditions in past years. The results will help you decide how hot, cold, wet, or windy it might be!

Date:

Astronomy

Nov. 09, 2012 Rise Set
Actual Time 7:23 AM EST 5:22 PM EST
Civil Twilight 6:53 AM EST 5:51 PM EST
Nautical Twilight 6:19 AM EST 6:25 PM EST
Astronomical Twilight 5:46 AM EST 6:58 PM EST
Moon 2:15 AM EST (11/9) 2:40 PM EST (11/9)
Length of Visible Light 10h 58m
Length of Day
9h 58m
Waning Crescent, 23% of the Moon is Illuminated
Nov 9
Waning Crescent
Nov 13
New
Nov 20
First Quarter
Nov 28
Full
Dec 6
Last Quarter

Hourly Weather History & Observations

Time (EST) Temp. Windchill Dew Point Humidity Pressure Visibility Wind Dir Wind Speed Gust Speed Precip Events Conditions
12:15 AM 34.5 °F - 31.8 °F 90% 30.11 in 5.0 mi Calm Calm - N/A   Mostly Cloudy
12:35 AM 32.9 °F - 31.3 °F 94% 30.11 in 5.0 mi Calm Calm - N/A   Scattered Clouds
12:55 AM 32.2 °F - 30.4 °F 93% 30.11 in 5.0 mi Calm Calm - N/A   Clear
1:15 AM 32.4 °F - 31.5 °F 96% 30.11 in 4.0 mi Calm Calm - N/A   Clear
1:35 AM 32.0 °F - 30.7 °F 95% 30.11 in 3.0 mi Calm Calm - N/A   Clear
1:55 AM 29.8 °F - 28.8 °F 96% 30.12 in 4.0 mi Calm Calm - N/A   Clear
2:15 AM 31.3 °F - 30.4 °F 96% 30.13 in 2.5 mi Calm Calm - N/A   Scattered Clouds
2:35 AM 29.7 °F - 28.8 °F 96% 30.13 in 3.0 mi Calm Calm - N/A   Scattered Clouds
2:55 AM 28.4 °F - 28.0 °F 99% 30.13 in 4.0 mi Calm Calm - N/A   Scattered Clouds
3:15 AM 29.8 °F - 29.3 °F 98% 30.13 in 3.0 mi Calm Calm - N/A   Mist
3:35 AM 29.1 °F - 28.4 °F 97% 30.14 in 4.0 mi Calm Calm - N/A   Mostly Cloudy
3:55 AM 29.5 °F - 28.9 °F 98% 30.14 in 4.0 mi Calm Calm - N/A   Overcast
4:15 AM 31.3 °F - 30.7 °F 98% 30.13 in 4.0 mi Calm Calm - N/A   Overcast
4:35 AM 32.2 °F - 32.0 °F 99% 30.13 in 3.0 mi Calm Calm - N/A   Overcast
4:55 AM 32.9 °F - 32.2 °F 97% 30.13 in 2.5 mi Calm Calm - N/A   Overcast
5:15 AM 33.8 °F - 32.9 °F 96% 30.13 in 2.5 mi Calm Calm - N/A   Overcast
5:35 AM 34.9 °F - 34.3 °F 98% 30.14 in 3.0 mi Calm Calm - N/A   Overcast
5:55 AM 36.0 °F - 35.1 °F 97% 30.14 in 4.0 mi Calm Calm - N/A   Overcast
6:15 AM 36.9 °F 33.1 °F 35.8 °F 96% 30.14 in 4.0 mi South 4.6 mph - N/A   Overcast
6:35 AM 37.4 °F 33.8 °F 36.1 °F 95% 30.13 in 4.0 mi South 4.6 mph - N/A   Overcast
6:55 AM 37.2 °F 33.6 °F 35.6 °F 94% 30.14 in 4.0 mi SSW 4.6 mph - N/A   Overcast
7:15 AM 35.8 °F 33.0 °F 34.3 °F 94% 30.15 in 2.5 mi South 3.5 mph - N/A   Overcast
7:35 AM 35.4 °F - 34.0 °F 94% 30.15 in 2.5 mi Calm Calm - N/A   Overcast
7:55 AM 34.9 °F 32.0 °F 33.6 °F 95% 30.15 in 2.5 mi SSE 3.5 mph - N/A   Scattered Clouds
8:15 AM 36.0 °F - 34.7 °F 95% 30.16 in 2.5 mi Calm Calm - N/A   Clear
8:35 AM 37.0 °F 34.5 °F 35.6 °F 95% 30.15 in 2.5 mi SSE 3.5 mph - N/A   Clear
8:55 AM 38.5 °F 35.0 °F 36.5 °F 93% 30.15 in 3.0 mi South 4.6 mph - N/A   Clear
9:15 AM 40.1 °F 36.9 °F 37.2 °F 89% 30.15 in 3.0 mi SSE 4.6 mph - N/A   Clear
9:35 AM 41.9 °F 36.9 °F 37.9 °F 86% 30.15 in 4.0 mi SSW 8.1 mph - N/A   Clear
9:55 AM 43.7 °F 39.7 °F 38.5 °F 82% 30.15 in 4.0 mi South 6.9 mph - N/A   Haze
10:15 AM 45.7 °F 42.7 °F 39.2 °F 78% 30.14 in 5.0 mi South 5.8 mph - N/A   Haze
10:35 AM 47.3 °F - 39.4 °F 74% 30.13 in 5.0 mi South 9.2 mph - N/A   Haze
10:55 AM 48.9 °F - 39.9 °F 71% 30.13 in 5.0 mi South 8.1 mph - N/A   Haze
11:15 AM 50.0 °F - 39.6 °F 67% 30.13 in 7.0 mi SSW 8.1 mph - N/A   Clear
11:35 AM 51.4 °F - 39.6 °F 64% 30.13 in 7.0 mi SSW 8.1 mph - N/A   Clear
11:55 AM 52.3 °F - 39.7 °F 62% 30.12 in 10.0 mi South 5.8 mph - N/A   Clear
12:15 PM 54.0 °F - 39.2 °F 57% 30.09 in 10.0 mi South 6.9 mph - N/A   Clear
12:35 PM 54.7 °F - 39.2 °F 56% 30.09 in 10.0 mi SSE 8.1 mph - N/A   Clear
12:55 PM 55.2 °F - 39.2 °F 55% 30.09 in 10.0 mi South 9.2 mph - N/A   Clear
1:15 PM 56.1 °F - 39.4 °F 53% 30.07 in 10.0 mi South 6.9 mph - N/A   Clear
1:35 PM 56.8 °F - 39.0 °F 51% 30.06 in 10.0 mi South 10.4 mph 16.1 mph N/A   Clear
1:55 PM 57.0 °F - 38.5 °F 50% 30.06 in 10.0 mi SSE 10.4 mph - N/A   Clear
2:15 PM 57.4 °F - 38.3 °F 49% 30.06 in 10.0 mi South 8.1 mph - N/A   Clear
2:35 PM 57.9 °F - 38.5 °F 48% 30.06 in 10.0 mi SSE 8.1 mph - N/A   Scattered Clouds
2:55 PM 57.2 °F - 38.1 °F 49% 30.05 in 10.0 mi South 8.1 mph - N/A   Mostly Cloudy
3:15 PM 56.3 °F - 37.8 °F 50% 30.05 in 10.0 mi South 6.9 mph - N/A   Mostly Cloudy
3:35 PM 56.7 °F - 37.6 °F 49% 30.06 in 10.0 mi South 8.1 mph - N/A   Overcast
3:55 PM 55.8 °F - 37.9 °F 51% 30.05 in 10.0 mi South 8.1 mph - N/A   Overcast
4:15 PM 55.6 °F - 37.8 °F 51% 30.05 in 10.0 mi South 5.8 mph - N/A   Overcast
4:35 PM 55.4 °F - 38.3 °F 53% 30.05 in 10.0 mi SSE 6.9 mph - N/A   Overcast
4:55 PM 54.9 °F - 37.9 °F 53% 30.05 in 10.0 mi SSE 4.6 mph - N/A   Overcast
5:15 PM 54.5 °F - 37.9 °F 54% 30.04 in 10.0 mi SSE 4.6 mph - N/A   Overcast
5:35 PM 54.0 °F - 38.3 °F 55% 30.04 in 10.0 mi SSE 4.6 mph - N/A   Overcast
5:55 PM 54.0 °F - 38.3 °F 55% 30.04 in 10.0 mi SE 4.6 mph - N/A   Overcast
6:15 PM 53.6 °F - 38.3 °F 56% 30.05 in 10.0 mi Calm Calm - N/A   Overcast
6:35 PM 53.1 °F - 38.5 °F 58% 30.05 in 10.0 mi ESE 3.5 mph - N/A   Overcast
6:55 PM 53.1 °F - 38.7 °F 58% 30.05 in 10.0 mi Calm Calm - N/A   Overcast
7:15 PM 52.7 °F - 38.8 °F 59% 30.05 in 10.0 mi ESE 3.5 mph - N/A   Overcast
7:35 PM 52.9 °F - 39.2 °F 60% 30.05 in 10.0 mi ESE 3.5 mph - N/A   Overcast
7:55 PM 51.8 °F - 40.8 °F 66% 30.05 in 7.0 mi Calm Calm - N/A   Light Drizzle
8:15 PM 51.1 °F - 41.9 °F 71% 30.05 in 10.0 mi Calm Calm - N/A   Overcast
8:35 PM 50.9 °F - 41.9 °F 71% 30.05 in 10.0 mi Calm Calm - N/A   Overcast
8:55 PM 50.9 °F - 42.1 °F 72% 30.05 in 10.0 mi Calm Calm - N/A   Overcast
9:15 PM 50.9 °F - 42.3 °F 72% 30.06 in 7.0 mi Calm Calm - N/A   Overcast
9:35 PM 50.9 °F - 41.9 °F 71% 30.06 in 7.0 mi ENE 3.5 mph - N/A   Overcast
9:55 PM 50.9 °F - 41.9 °F 71% 30.06 in 7.0 mi East 3.5 mph - N/A   Overcast
10:15 PM 50.9 °F - 41.9 °F 71% 30.07 in 7.0 mi Calm Calm - N/A   Overcast
10:35 PM 50.2 °F - 42.4 °F 75% 30.07 in 7.0 mi East 3.5 mph - N/A Rain Rain
10:55 PM 50.0 °F - 42.6 °F 76% 30.07 in 7.0 mi East 4.6 mph - N/A   Overcast
11:15 PM 50.0 °F - 43.0 °F 77% 30.07 in 5.0 mi Calm Calm - N/A Rain Light Rain
11:35 PM 49.3 °F - 43.7 °F 81% 30.08 in 7.0 mi Calm Calm - N/A   Overcast
11:55 PM 49.1 °F - 44.1 °F 83% 30.07 in 5.0 mi East 3.5 mph - N/A Rain Light Rain